Regional Weather Roundup
Issued by NWS

Home | Current Version | Previous Version | Graphics & Text | Print | Product List | Glossary On
Versions: 1 2 3 4 5 6 7 8 9 10 11 12 13 14 15 16 17 18 19 20 21 22 23 24 25 26 27 28 29 30 31 32 33 34 35 36 37 38 39 40 41 42 43 44 45 46 47 48 49 50
000
ASUS43 KBIS 170902
RWRND

NORTH DAKOTA REGIONAL WEATHER ROUNDUP
NATIONAL WEATHER SERVICE BISMARCK ND
300 AM CST WED JAN 17 2018

NOTE: "FAIR" INDICATES FEW OR NO CLOUDS BELOW 12,000 FEET WITH NO
SIGNIFICANT WEATHER AND/OR OBSTRUCTIONS TO VISIBILITY.


NDZ001>003-009>011-017-171000-
NORTHWEST NORTH DAKOTA

CITY           SKY/WX    TMP DP  RH WIND       PRES   REMARKS
WILLISTON      CLEAR      8   1  73 S5        30.10S WCI   0
MINOT          CLOUDY    15   2  56 SW17      30.01S WCI  -1
MINOT AFB      CLOUDY    13   2  60 W13       30.01F WCI  -1
$$

NDZ018>021-031>035-040>046-171000-
SOUTHWEST NORTH DAKOTA

CITY           SKY/WX    TMP DP  RH WIND       PRES   REMARKS
BISMARCK       CLEAR      0  -5  79 SE7       30.17F WCI -13
DICKINSON      CLEAR     18   6  59 SW13      30.08R WCI   5
GARRISON         N/A      3  -3  76 SW7       30.08F WCI  -9
HETTINGER ARPT CLEAR      3  -4  72 W7        30.14F WCI  -9
$$

NDZ004>008-012>016-024-026-027-054-171000-
NORTHEAST NORTH DAKOTA

CITY           SKY/WX    TMP DP  RH WIND       PRES   REMARKS
GRAND FORKS    FAIR       7  -1  70 S16       30.15F WCI -11
GRND FRKS AFB  FAIR       9  -2  61 S14       30.13F WCI  -7
DEVILS LAKE    FAIR      10   1  67 SW14      30.08F WCI  -6
$$

NDZ022-023-025-028>030-036>039-047>053-171000-
SOUTHEAST NORTH DAKOTA

CITY           SKY/WX    TMP DP  RH WIND       PRES   REMARKS
FARGO          FAIR       5  -2  72 S16       30.27F WCI -14
JAMESTOWN      CLOUDY     3  -2  79 S7        30.17F WCI  -9
$$





USA.gov is the U.S. government's official web portal to all federal, state and local government web resources and services.